Simultaneous Nadir Overpasses (SNOs) Predictions

Prediction of SNOs between AQUA and NOAA-19 Satellite Orbit:

Table of predicted SNOs for the next 14.0 days since TLE Epoch: 4/22/2012
Index Date (AQUA) Time (AQUA) AQUA Lat,Lon Date (NOAA-19) Time (NOAA-19) NOAA-19 Lat,Lon Distance(km) Time Diff (sec)
1 04/24/2012 01:50:49 53.58, 7.50 04/24/2012 01:50:43 53.58, 7.50 0.17 6
2 04/24/2012 02:34:39 -72.83,-166.98 04/24/2012 02:35:53 -72.66,-166.14 33.29 74
3 04/26/2012 05:47:50 -46.02, 125.58 04/26/2012 05:46:38 -45.98, 125.62 5.55 72
4 04/26/2012 06:34:24 56.02, -62.32 04/26/2012 06:34:45 56.02, -62.34 1.58 21
5 04/28/2012 10:31:26 -48.40, 55.43 04/28/2012 10:30:41 -48.40, 55.44 0.63 45
6 04/28/2012 11:17:52 58.84,-131.74 04/28/2012 11:18:40 58.84,-131.76 0.82 48
7 04/30/2012 15:14:32 -52.51, -13.86 04/30/2012 15:14:14 -52.52, -13.84 1.17 18
8 04/30/2012 16:00:11 65.57, 162.38 04/30/2012 16:01:24 65.55, 162.65 12.72 73
9 05/02/2012 19:57:53 -55.70, -83.33 05/02/2012 19:58:03 -55.70, -83.31 0.89 10
10 05/04/2012 23:54:47 48.13, 34.51 05/04/2012 23:53:58 48.13, 34.53 1.29 49




NCC Satellite Simultaneous Nadir Overpasses (SNOs) Prediction Service
